COSMOS 2251 DEB

Satellite information

Favourite Embed

Satellite Type and Status

DEBRISIN ORBIT

Key statistics

Satellite COSMOS 2251 DEB at a glance.

Uptime

11650

Days in orbit

Revolutions

≈ 14.0

Per day

Orbit

LEO

Low Earth Orbit

Inclination

74.0

Latest

Satellite identification and parameters

Extended collection of information and parameters for COSMOS 2251 DEB.

Object identification

Identified? True

Debris? True

Object name: COSMOS 2251 DEB

International designator: 1993-036BVW

Object number (NORAD): 40793

Object ID (CCSDS): 40793

Country: COMMONWEALTH OF INDEPENDENT STATES (CIS)

Current information (Y/N): Y

RCS size: SMALL

Orbital parameters

Period: 102.5 minutes

Inclination: 73.9802 deg

SMA: 7255.105 km

Apoapsis: 1034.188 km

Periapsis: 719.752 km

RAAN: 229.5862 deg

Eccentricy: 0.02167

Argument of periapsis: 78.3182 deg

Mean anomaly: 284.2182 deg

Mean motion: 14.04873428 rev/day

Mean motion (dot): 0.00003968 rev/day2

B* drag term: 0.0020125 1/REarth

Two-line elements (TLE)

Creation date: April 15, 2025, 2:40 a.m.

Reference frame: TEME

Reference center: EARTH

Epoch: April 14, 2025, 2:34 p.m. UTC

TLE line 0: 0 COSMOS 2251 DEB

TLE line 1: 1 40793U 93036BVW 25104.60713437 .00003968 00000-0 20125-2 0 9995

TLE line 2: 2 40793 73.9802 229.5862 0216700 78.3182 284.2182 14.04873428648447

Live tracking on map

Real-time ground track for satellite COSMOS 2251 DEB.

In-orbit conjunctions

A list of the most updated potential collisions computed for object COSMOS 2251 DEB.

Target Orbit TCA Probability of collision Miss distance Type
CZ-6A DEB LEO 2024-10-13 06:20:56 0.001627965 52.0 (m) DEBRIS
P 76-5 SSO 2024-09-25 07:58:18 0.0002056211 933.0 (m) PAYLOAD

Associated space launch

Military communications satellite. Destroyed in a collision with Iridium 33.

COSMOS 2251 DEB was lifted into orbit during the mission ‘Kosmos-3M | Strela-2M 51’, on board a Kosmos-3M space rocket.

The launch took place on June 16, 1993, 4:17 a.m. from 132/1 (132L).

For more information about the launch, click the button.

Launch to space Kosmos-3M | Strela-2M 51
Kosmos-3M | Strela-2M 51

Agency: N/A

Status: Launch Successful

Launch date: June 16, 1993, 4:17 a.m. UTC

Rocket: Kosmos-3M

Launch pad: 132/1 (132L)

Location: Plesetsk Cosmodrome, Russian Federation

...

Latest news about this satellite

There are no fresh news available about this satellite. Check back as we update our databases every day.


Newsletter sign-up

Weekly statistics, charts and insights to help you stay on top of the space industry.